| time (UTC) | temp F | wind direction | speed MPH | gust MPH | rain 1hr in | rain 24hr in | rain mn in | humidity % | barometer mb |
| 20260507090040 | 43 | 211 | 2.0 | 4.0 | 0.00 | 0.00 | 0.00 | 78 | 1006.3 |
| 20260507084608 | 43 | 211 | 1.0 | 4.0 | 0.00 | 0.02 | 0.00 | 78 | 1006.3 |
| 20260507083015 | 43 | 211 | 1.0 | 5.0 | 0.00 | 0.02 | 0.00 | 78 | 1006.3 |
| 20260507081554 | 43 | 219 | 2.0 | 5.0 | 0.00 | 0.02 | 0.00 | 78 | 1006.5 |
| 20260507080137 | 42 | 213 | 1.0 | 3.0 | 0.00 | 0.02 | 0.00 | 80 | 1006.5 |
| 20260507074531 | 42 | 200 | 0.0 | 2.0 | 0.00 | 0.08 | 0.00 | 80 | 1006.4 |
| 20260507073109 | 42 | 216 | 0.0 | 2.0 | 0.00 | 0.08 | 0.00 | 80 | 1006.5 |
| 20260507071521 | 43 | 208 | 0.0 | 2.0 | 0.00 | 0.08 | 0.00 | 80 | 1006.5 |
| 20260507070109 | 43 | 208 | 0.0 | 2.0 | 0.00 | 0.08 | 0.00 | 81 | 1006.6 |
| 20260507064645 | 43 | 200 | 0.0 | 2.0 | 0.00 | 0.13 | 0.00 | 81 | 1006.6 |
| 20260507063020 | 43 | 200 | 0.0 | 2.0 | 0.00 | 0.13 | 0.00 | 82 | 1006.8 |
| 20260507061608 | 42 | 155 | 0.0 | 0.0 | 0.00 | 0.13 | 0.00 | 86 | 1006.8 |
| 20260507060141 | 42 | 156 | 0.0 | 0.0 | 0.00 | 0.13 | 0.00 | 88 | 1007.0 |
| 20260507054518 | 41 | 151 | 0.0 | 0.0 | 0.00 | 0.17 | 0.00 | 90 | 1007.1 |
| 20260507053052 | 41 | 151 | 0.0 | 0.0 | 0.00 | 0.17 | 0.00 | 89 | 1007.1 |
| 20260507051533 | 42 | 151 | 0.0 | 0.0 | 0.00 | 0.17 | 0.00 | 85 | 1007.1 |
| 20260507044503 | 44 | 151 | 1.0 | 2.0 | 0.00 | 0.20 | 0.00 | 82 | 1007.2 |
| 20260507043042 | 45 | 146 | 1.0 | 2.0 | 0.00 | 0.20 | 0.00 | 81 | 1007.2 |
| 20260507041635 | 45 | 153 | 1.0 | 2.0 | 0.00 | 0.20 | 0.00 | 81 | 1007.2 |
| 20260507040000 | 45 | 159 | 0.0 | 2.0 | 0.00 | 0.25 | 0.20 | 82 | 1007.3 |
| 20260507034653 | 45 | 144 | 1.0 | 2.0 | 0.00 | 0.25 | 0.20 | 84 | 1007.4 |
| 20260507033148 | 45 | 159 | 0.0 | 0.0 | 0.00 | 0.25 | 0.20 | 87 | 1007.6 |
| 20260507031656 | 45 | 84 | 0.0 | 0.0 | 0.00 | 0.25 | 0.20 | 89 | 1007.7 |
| 20260507030019 | 45 | 84 | 0.0 | 0.0 | 0.00 | 0.41 | 0.20 | 89 | 1007.8 |
| 20260507024608 | 45 | 84 | 0.0 | 0.0 | 0.00 | 0.41 | 0.20 | 87 | 1007.8 |
| 20260507023148 | 45 | 84 | 0.0 | 0.0 | 0.00 | 0.41 | 0.20 | 88 | 1007.6 |
| 20260507021513 | 45 | 65 | 0.0 | 0.0 | 0.00 | 0.41 | 0.20 | 88 | 1007.5 |
| 20260507020113 | 45 | 40 | 0.0 | 0.0 | 0.00 | 0.41 | 0.20 | 89 | 1007.5 |
| 20260507014634 | 46 | 40 | 0.0 | 0.0 | 0.00 | 0.54 | 0.20 | 86 | 1007.4 |
| 20260507013040 | 46 | 40 | 0.0 | 0.0 | 0.00 | 0.54 | 0.20 | 87 | 1007.3 |
| 20260507011553 | 46 | 40 | 0.0 | 0.0 | 0.00 | 0.54 | 0.20 | 85 | 1007.1 |
| 20260507010120 | 47 | 40 | 0.0 | 0.0 | 0.00 | 0.54 | 0.20 | 82 | 1007.0 |
| 20260507004528 | 48 | 40 | 0.0 | 0.0 | 0.00 | 0.56 | 0.20 | 70 | 1007.0 |
| 20260507003053 | 48 | 40 | 0.0 | 0.0 | 0.00 | 0.56 | 0.20 | 73 | 1006.9 |
| 20260507001635 | 49 | 42 | 0.0 | 2.0 | 0.00 | 0.56 | 0.20 | 65 | 1006.9 |
| 20260507000012 | 49 | 286 | 0.0 | 2.0 | 0.00 | 0.63 | 0.20 | 64 | 1007.0 |
| 20260506234558 | 50 | 291 | 0.0 | 2.0 | 0.00 | 0.63 | 0.20 | 64 | 1007.0 |
| 20260506233010 | 50 | 28 | 1.0 | 3.0 | 0.00 | 0.63 | 0.20 | 64 | 1006.9 |
| 20260506231603 | 50 | 30 | 0.0 | 3.0 | 0.00 | 0.63 | 0.20 | 63 | 1006.8 |
| 20260506230009 | 50 | 288 | 1.0 | 4.0 | 0.00 | 0.74 | 0.20 | 60 | 1006.8 |
| 20260506224552 | 50 | 340 | 1.0 | 4.0 | 0.00 | 0.74 | 0.20 | 58 | 1006.9 |
| 20260506223105 | 51 | 246 | 1.0 | 4.0 | 0.00 | 0.74 | 0.20 | 61 | 1006.8 |
| 20260506221505 | 51 | 336 | 0.0 | 4.0 | 0.00 | 0.74 | 0.20 | 63 | 1006.9 |
| 20260506220052 | 51 | 280 | 2.0 | 6.0 | 0.00 | 0.74 | 0.20 | 56 | 1006.6 |
| 20260506214639 | 52 | 272 | 1.0 | 6.0 | 0.00 | 0.88 | 0.20 | 57 | 1006.5 |
| 20260506213056 | 52 | 244 | 2.0 | 4.0 | 0.00 | 0.88 | 0.20 | 57 | 1006.2 |
| 20260506211612 | 53 | 9 | 0.0 | 5.0 | 0.00 | 0.88 | 0.20 | 60 | 1005.9 |
| 20260506210027 | 52 | 298 | 1.0 | 8.0 | 0.00 | 1.07 | 0.20 | 57 | 1005.8 |
| 20260506204558 | 53 | 274 | 1.0 | 4.0 | 0.00 | 1.07 | 0.20 | 57 | 1005.8 |
| 20260506203136 | 53 | 265 | 2.0 | 4.0 | 0.00 | 1.07 | 0.20 | 58 | 1005.7 |
| 20260506201638 | 53 | 271 | 1.0 | 5.0 | 0.00 | 1.07 | 0.20 | 56 | 1005.8 |
| 20260506200139 | 53 | 272 | 2.0 | 5.0 | 0.00 | 1.07 | 0.20 | 56 | 1005.8 |
| 20260506194518 | 54 | 255 | 2.0 | 6.0 | 0.00 | 1.19 | 0.20 | 58 | 1005.7 |
| 20260506193104 | 54 | 245 | 4.0 | 8.0 | 0.00 | 1.19 | 0.20 | 54 | 1006.1 |
| 20260506191525 | 54 | 337 | 1.0 | 4.0 | 0.00 | 1.19 | 0.20 | 53 | 1005.8 |
| 20260506190109 | 53 | 340 | 3.0 | 6.0 | 0.00 | 1.19 | 0.20 | 55 | 1005.8 |
| 20260506184520 | 54 | 273 | 3.0 | 8.0 | 0.00 | 1.22 | 0.20 | 58 | 1005.9 |
| 20260506183055 | 54 | 348 | 1.0 | 6.0 | 0.00 | 1.22 | 0.20 | 60 | 1006.0 |
| 20260506181626 | 54 | 26 | 4.0 | 8.0 | 0.00 | 1.22 | 0.20 | 54 | 1006.0 |
| 20260506180147 | 54 | 9 | 3.0 | 11.0 | 0.00 | 1.22 | 0.20 | 62 | 1006.1 |
| 20260506174531 | 53 | 274 | 1.0 | 7.0 | 0.00 | 1.22 | 0.20 | 58 | 1006.1 |
| 20260506173111 | 54 | 265 | 2.0 | 6.0 | 0.00 | 1.22 | 0.20 | 58 | 1006.1 |
| 20260506171636 | 53 | 54 | 4.0 | 8.0 | 0.00 | 1.22 | 0.20 | 65 | 1005.7 |
| 20260506170039 | 53 | 290 | 2.0 | 7.0 | 0.00 | 1.22 | 0.20 | 64 | 1006.1 |
| 20260506164558 | 54 | 317 | 1.0 | 6.0 | 0.00 | 1.22 | 0.20 | 61 | 1006.2 |
| 20260506163008 | 55 | 263 | 3.0 | 8.0 | 0.00 | 1.22 | 0.20 | 68 | 1005.8 |
| 20260506161539 | 54 | 268 | 3.0 | 8.0 | 0.00 | 1.22 | 0.20 | 68 | 1005.5 |
| 20260506160117 | 54 | 221 | 2.0 | 5.0 | 0.00 | 1.22 | 0.20 | 74 | 1005.5 |
| 20260506154523 | 53 | 319 | 3.0 | 6.0 | 0.00 | 1.22 | 0.20 | 68 | 1005.2 |
| 20260506153112 | 53 | 298 | 3.0 | 6.0 | 0.00 | 1.22 | 0.20 | 71 | 1005.2 |
| 20260506151640 | 53 | 277 | 3.0 | 9.0 | 0.00 | 1.22 | 0.20 | 73 | 1005.0 |
| 20260506150058 | 52 | 11 | 1.0 | 7.0 | 0.00 | 1.22 | 0.20 | 77 | 1004.5 |
| 20260506144503 | 51 | 274 | 4.0 | 11.0 | 0.00 | 1.22 | 0.20 | 77 | 1004.5 |
| 20260506143045 | 51 | 271 | 3.0 | 9.0 | 0.00 | 1.22 | 0.20 | 82 | 1004.4 |
| 20260506141639 | 49 | 296 | 2.0 | 6.0 | 0.00 | 1.22 | 0.20 | 83 | 1004.4 |
| 20260506140035 | 49 | 252 | 2.0 | 5.0 | 0.00 | 1.22 | 0.20 | 82 | 1004.4 |
| 20260506134601 | 48 | 275 | 1.0 | 7.0 | 0.00 | 1.22 | 0.20 | 83 | 1004.1 |
| 20260506133028 | 47 | 250 | 3.0 | 8.0 | 0.00 | 1.22 | 0.20 | 83 | 1004.2 |
| 20260506131555 | 47 | 260 | 3.0 | 8.0 | 0.00 | 1.22 | 0.20 | 84 | 1004.1 |
| 20260506130141 | 47 | 340 | 3.0 | 8.0 | 0.00 | 1.22 | 0.20 | 85 | 1003.8 |
| 20260506124503 | 46 | 285 | 2.0 | 3.0 | 0.00 | 1.22 | 0.20 | 89 | 1003.6 |
| 20260506123106 | 45 | 267 | 2.0 | 4.0 | 0.00 | 1.22 | 0.20 | 90 | 1003.4 |
| 20260506121646 | 45 | 275 | 1.0 | 4.0 | 0.00 | 1.22 | 0.20 | 91 | 1003.3 |
| 20260506120027 | 45 | 312 | 1.0 | 4.0 | 0.00 | 1.22 | 0.20 | 92 | 1003.1 |
| 20260506114607 | 45 | 277 | 2.0 | 5.0 | 0.00 | 1.22 | 0.20 | 93 | 1003.1 |
| 20260506113014 | 45 | 243 | 1.0 | 3.0 | 0.00 | 1.22 | 0.20 | 93 | 1003.1 |
| 20260506111608 | 45 | 249 | 1.0 | 2.0 | 0.00 | 1.22 | 0.20 | 92 | 1002.4 |
| 20260506110019 | 45 | 292 | 0.0 | 2.0 | 0.00 | 1.22 | 0.20 | 92 | 1002.0 |
| 20260506104545 | 45 | 256 | 1.0 | 2.0 | 0.00 | 1.22 | 0.20 | 92 | 1001.8 |
| 20260506103137 | 45 | 271 | 0.0 | 2.0 | 0.00 | 1.22 | 0.20 | 93 | 1001.7 |
| 20260506101511 | 45 | 334 | 1.0 | 3.0 | 0.00 | 1.22 | 0.20 | 93 | 1001.9 |
| 20260506100057 | 45 | 230 | 1.0 | 3.0 | 0.00 | 1.22 | 0.20 | 93 | 1002.1 |
| 20260506094636 | 45 | 276 | 0.0 | 2.0 | 0.00 | 1.22 | 0.20 | 93 | 1001.0 |
| 20260506093145 | 45 | 270 | 0.0 | 2.0 | 0.01 | 1.22 | 0.20 | 93 | 1001.2 |
| 20260506091602 | 45 | 255 | 0.0 | 2.0 | 0.01 | 1.22 | 0.20 | 93 | 1001.6 |